{"data":{"norad_id":23613,"epoch":"2026-05-25T00:44:44.352096Z","epoch_age_seconds":69178,"freshness":"FRESH","line1":"1 23613U 95035B   26145.03106889 -.00000250  00000+0  00000+0 0  9996","line2":"2 23613  13.3871 348.3510 0011130  72.6341 282.0830  1.00270588113013","mean_motion":1.00270588,"eccentricity":0.001113,"inclination_deg":13.3871,"raan_deg":348.351,"arg_perigee_deg":72.6341,"mean_anomaly_deg":282.083,"bstar":0,"rev_number":11301,"period_min":1436.1140477206,"perigee_km":35740.000806924,"apogee_km":35833.860247239,"semimajor_km":42165.067527081,"source":"CELESTRAK","updated_at":"2026-05-25T13:38:13.805954Z"}}